Regional Weather Roundup
Issued by NWS

Home | Current Version | Previous Version | Graphics & Text | Print | Product List | Glossary On
Versions: 1 2 3 4 5 6 7 8 9 10 11 12 13 14 15 16 17 18 19 20 21 22 23 24 25 26 27 28 29 30 31 32 33 34 35 36 37 38 39 40 41 42 43 44 45 46 47 48 49 50
000
ASUS45 KABQ 010810
RWRNM
WEATHER ROUNDUP FOR NEW MEXICO
NATIONAL WEATHER SERVICE ALBUQUERQUE NM
200 AM MDT FRI AUG 01 2014

NOTE: "FAIR" MEANS FEW OR NO CLOUDS BELOW 12,000 FEET AGL WITH NO
       SIGNIFICANT WEATHER OR OBSTRUCTIONS TO VISION.

      THIS PRODUCT IS RELEASED AS TWO VERSIONS.  ONE VERSION NEAR
      THE TOP OF THE HOUR CONTAINING PRELIMINARY DATA FROM ALBUQUERQUE
      AND OTHER STATIONS.  A FINAL VERSION WITH ADDITIONAL DATA IS
      ISSUED ABOUT 10 MINUTES AFTER THE HOUR.

NMZ501-503-504-510>518-010900-
NORTHWEST PLATEAU/NORTHCENTRAL MOUNTAINS

CITY           SKY/WX    TMP DP  RH WIND       PRES   REMARKS
FARMINGTON     PTCLDY    68  53  58 E6        30.22S
LOS ALAMOS     CLOUDY    55  53  94 S12       30.39S
SANTA FE       NOT AVBL
TAOS           CLOUDY    54  48  82 SW3       30.39S
ANGEL FIRE     CLOUDY    51  49  95 CALM      30.47F

$$
NMZ402-403-502-505>509-010900-
WESTCENTRAL MOUNTAINS/SOUTHWEST MOUNTAINS

CITY           SKY/WX    TMP DP  RH WIND       PRES   REMARKS
GALLUP         CLOUDY    60  56  86 SE3       30.32F
SILVER CITY    CLOUDY    66  63  88 NW9       30.25S

$$
NMZ407-409-411-412-010900-
SOUTHERN DESERTS

CITY           SKY/WX    TMP DP  RH WIND       PRES   REMARKS
LORDSBURG      FAIR      72  57  60 CALM      30.16F
DEMING         LGT RAIN  66  64  93 NE18      30.16F
LAS CRUCES     CLOUDY    64  62  93 NE9       30.23R
HOLLOMAN AFB   TSTM      64  64 100 N7        30.19F FOG
ALAMOGORDO     TSTM      64  64 100 NW9       30.20S
T OR C         CLOUDY    64  60  87 NE6       30.21F

$$
NMZ519>523-010900-
CENTRAL VALLEYS/CENTRAL HIGHLANDS

CITY           SKY/WX    TMP DP  RH WIND       PRES   REMARKS
ALBUQUERQUE    MOCLDY    66  55  67 N7        30.28S
DOUBLE EAGLE   MOCLDY    60  56  88 NW5       30.31S
MORIARTY ARPT  CLOUDY    58  55  89 CALM      30.35S
CLINES CORNERS CLOUDY    56  54  93 E8        30.36S
BELEN          PTSUNNY   62  57  82 SW12      30.26S
SOCORRO        FAIR      65  59  81 W3        30.24F

$$
NMZ524>526-539-540-010900-
SOUTHCENTRAL MOUNTAINS

CITY           SKY/WX    TMP DP  RH WIND       PRES   REMARKS
RUIDOSO        LGT RAIN  55  55 100 NW8       30.39F

$$
NMZ527>531-010900-
NORTHEAST HIGHLANDS/NORTHEAST PLAINS

CITY           SKY/WX    TMP DP  RH WIND       PRES   REMARKS
LAS VEGAS      CLOUDY    54  51  90 CALM      30.38F
RATON          LGT RAIN  59  57  93 NE5       30.34F
CLAYTON        CLOUDY    65  56  72 CALM      30.28S

$$
NMZ532>537-010900-
EASTCENTRAL PLAINS

CITY           SKY/WX    TMP DP  RH WIND       PRES   REMARKS
TUCUMCARI      CLOUDY    70  55  59 E3        30.21F
CANNON AFB     CLOUDY    64  54  70 E8        30.23F
CLOVIS AIRPORT NOT AVBL

$$
NMZ028-029-538-010900-
SOUTHEAST PLAINS

CITY           SKY/WX    TMP DP  RH WIND       PRES   REMARKS
ROSWELL        CLOUDY    70  62  76 NW20      30.19R
ARTESIA        CLOUDY    70  66  88 N7        30.16S
CARLSBAD       CLOUDY    73  65  75 NE5       30.12F
HOBBS          MOCLDY    70  57  64 E8        30.19R


$$


USA.gov is the U.S. government's official web portal to all federal, state and local government web resources and services.